Weather in Dyuni

Bulgaria     42°22′18″N   27°42′18″E
temp.,
°C
wind,
m/s
gust,
m/s
humid.,
%
clouds,
%
prec.,
mm/h
press.,
hPa
HPBL,
m
11 may, tue
tue1100:00+8ese23750 0.0 1022148
03:00+6sw11810 0.0 1021136
06:00+5wsw22870 0.0 102155
09:00+12n11670 0.0 1021353
12:00+14e34570 0.0 1020683
15:00+15e44520 0.0 1019686
18:00+14e34560 0.0 1018483
21:00+9se23740 0.0 101787
12 may, wed
wed1200:00+7sw22830 0.0 101627
03:00+6wsw22790 0.0 101530
06:00+6wsw22730 0.0 101331
09:00+13se12550 0.0 1012262
12:00+17e44530 0.0 1011719
15:00+17e565696 0.0 1010534
18:00+16ese586641 0.0 1009400
21:00+11se3781100 0.0 1009167
13 may, thu
thu1300:00+10sse3590100 0.0 1009111
03:00+10sse23925 0.0 100875
06:00+9sw11910 0.0 100831
09:00+15s11705 0.0 1008324
12:00+18nne32635 0.0 1008558
15:00+18e327148 0.1 1008443
18:00+17e33726 0.1 1007235
21:00+13se22870 0.1 100822
14 may, fri
fri1400:00+13s229143 0.0 100725
03:00+13sw2389100 0.0 100748
06:00+13wnw2289100 0.0 100829
09:00+18w357699 0.0 1010375
12:00+20sw247322 1.3 1010943
15:00+21sw3569100 4.3 10101169
18:00+21wsw36790 5.4 1010270
21:00+15wnw7139393 9.3 1013364
15 may, sat
sat1500:00+12wsw22925 0.4 101426
03:00+12w3389100 0.4 101338
06:00+12wsw228791 0.0 101432
09:00+17ese117690 0.0 1014173
12:00+20e456210 0.0 1014599
15:00+18e577260 0.0 1012268
18:00+17e4980100 0.0 1011259
21:00+15se3591100 0.0 1009103